SCP
0 0 0 0 0 0 0 0 0 0 0 0 0 0 0 0 0 0 0 0 0 0 0 0 0 0 0 1 1 1 1 1 1 2 2 2 2 2 1 1 1 1 2
0 0 0 0 0 0 0 0 0 0 0 0 0 0 0 0 0 0 0 0 0 0 0 0 0 0 0 1 1 1 1 1 1 2 2 2 2 2 1 1 1 1 2
0 0 0 0 0 0 0 0 0 0 0 0 0 0 0 0 0 0 0 0 0 0 0 0 0 0 0 0 1 1 1 1 1 1 1 2 2 2 1 1 1 1 1
0 0 0 0 0 0 0 0 0 0 0 0 0 0 0 0 0 0 0 0 0 0 0 0 0 0 0 0 0 1 1 1 1 1 1 1 2 2 1 1 1 1 1
0 0 0 0 0 0 0 0 0 0 0 0 0 0 0 0 0 0 0 0 0 0 0 0 0 0 0 0 0 0 0 1 1 1 1 1 1 2 1 1 1 1 2
0 0 0 0 0 0 0 0 0 0 0 0 0 0 0 0 0 0 0 0 0 0 0 0 0 0 0 0 0 0 0 0 1 1 1 1 1 2 1 1 1 1 2
0 0 0 0 0 0 0 0 0 0 0 0 0 0 0 0 0 0 0 0 0 0 0 0 0 0 0 0 0 0 0 0 1 1 1 1 1 1 1 1 1 1 2
1 0 0 0 0 0 0 0 0 0 0 0 0 0 0 0 0 0 0 0 0 0 0 0 0 0 0 0 0 0 1 1 1 1 1 1 1 1 1 1 1 1 1
1 1 0 0 0 0 0 0 0 0 0 0 0 0 0 0 0 0 0 0 0 0 0 0 0 0 0 0 0 0 1 1 1 1 1 1 1 1 1 1 1 1 1
0 0 0 0 0 0 0 0 0 0 0 0 0 0 0 0 0 0 0 0 0 0 0 0 0 0 0 0 0 0 0 0 1 1 0 0 0 1 1 1 1 1 1
0 0 0 0 0 0 0 0 0 0 0 0 0 0 0 0 0 0 0 0 0 0 0 0 0 0 0 0 0 0 0 0 0 0 0 0 0 1 1 1 1 1 1
0 0 0 0 0 0 0 0 0 0 0 0 0 0 0 0 0 0 0 0 0 0 0 0 0 0 0 0 0 0 0 0 0 0 0 0 0 1 1 1 1 1 0
0 0 0 0 0 0 0 0 0 0 0 0 0 0 0 0 0 0 0 0 0 0 0 0 0 0 0 0 0 0 0 0 0 0 0 0 0 1 1 1 0 0 0
0 0 0 0 0 0 0 0 0 0 0 0 0 0 0 0 0 0 0 0 0 0 0 0 0 0 0 0 0 0 0 0 0 0 0 0 0 0 0 0 0 0 0
0 0 0 0 0 0 0 0 0 0 0 0 0 0 0 0 0 0 0 0 0 0 0 0 0 0 0 0 0 0 0 0 0 0 0 0 0 0 0 0 0 0 0
0 0 0 0 0 0 0 0 0 0 0 0 0 0 0 0 0 0 0 0 0 0 0 0 0 0 0 0 0 0 0 0 0 0 0 0 0 0 0 0 0 0 0
0 0 0 0 0 0 0 0 0 0 0 0 0 0 0 0 0 0 0 0 0 0 0 0 0 0 0 0 0 0 0 0 0 0 0 0 0 0 0 0 0 0 0
0 0 0 0 0 0 0 0 0 0 0 0 0 0 0 0 0 0 0 0 0 0 0 0 0 0 0 0 0 0 0 0 0 0 0 0 0 0 0 0 0 0 0
0 0 0 0 0 0 0 0 0 0 0 0 0 0 0 0 0 0 0 0 0 0 0 0 0 0 0 0 0 0 0 0 0 0 0 0 0 0 0 0 0 0 0
0 0 0 0 0 0 0 0 0 0 0 0 0 0 0 0 0 0 0 0 0 0 0 0 0 0 0 0 0 0 0 0 0 0 0 0 0 0 0 0 0 0 0
0 0 0 0 0 0 0 0 0 0 0 0 0 0 0 0 0 0 0 0 0 0 0 0 0 0 0 0 0 0 0 0 0 0 0 0 0 0 0 0 0 0 0
0 0 0 0 0 0 0 0 0 0 0 0 0 0 0 0 0 0 0 0 0 0 0 0 0 0 0 0 0 0 0 0 0 0 0 0 0 0 0 0 0 0 0
0 0 0 0 0 0 0 0 0 0 0 0 0 0 0 0 0 0 0 0 0 0 0 0 0 0 0 0 0 0 0 0 0 0 0 0 0 0 0 0 0 0 0
0 0 0 0 0 0 0 0 0 0 0 0 0 0 0 0 0 0 0 0 0 0 0 0 0 0 0 0 0 0 0 0 0 0 0 0 0 0 0 0 0 0 0
0 0 0 0 0 0 0 0 0 0 0 0 0 0 0 0 0 0 0 0 0 0 0 0 0 0 0 0 0 0 0 0 0 0 0 0 0 0 0 0 0 0 0
0 0 0 0 0 0 0 0 0 0 0 0 0 0 0 0 0 0 0 0 0 0 0 0 0 0 0 0 0 0 0 0 0 0 0 0 0 0 0 0 0 0 0
Wind_Speed
7 7 6 6 5 3 1 0 2 2 2 3 3 4 4 4 3 3 5 5 5 5 5 4 4 4 3 4 5 3 4 3 2 2 2 2 3 2 2 3 3 4 4
8 8 7 7 5 3 2 1 1 2 3 3 4 3 4 4 4 4 4 5 5 5 4 4 4 3 3 4 4 3 3 2 2 2 2 2 3 3 2 2 2 3 3
9 9 8 7 5 4 2 1 1 1 2 3 3 3 2 3 2 4 4 5 5 5 5 5 4 4 4 3 3 3 3 3 2 2 2 2 1 1 2 2 2 2 2
9 8 8 7 6 4 3 2 1 1 1 2 3 5 4 4 5 4 4 4 4 4 4 4 4 4 3 3 3 2 3 3 2 1 1 2 1 1 1 2 2 2 3
9 9 8 7 6 4 3 2 1 1 1 2 3 4 4 4 4 4 5 5 3 4 4 4 4 4 3 3 3 3 3 3 3 2 1 1 1 2 1 1 1 2 1
9 9 8 7 5 5 4 3 2 1 1 2 3 3 4 5 5 5 5 4 3 3 4 4 4 4 3 3 3 3 3 3 3 3 2 2 1 1 1 1 2 1 1
9 9 9 8 6 6 5 4 3 2 2 3 3 3 3 5 5 5 4 4 4 4 5 4 4 4 3 3 3 2 3 3 3 3 2 2 2 1 1 2 2 2 1
9 9 9 8 7 6 6 5 4 3 2 3 3 3 3 3 3 4 4 4 4 4 5 5 4 4 4 3 2 2 2 2 3 3 3 2 2 2 2 2 2 2 2
9 9 9 8 7 7 6 5 4 3 3 3 2 2 3 3 4 4 4 4 4 4 5 5 4 3 3 3 3 1 1 2 2 2 2 2 1 2 2 2 2 2 2
9 9 8 8 8 7 6 5 4 3 3 3 2 1 3 3 4 4 4 4 5 5 5 4 4 3 2 2 2 2 1 1 0 1 2 2 2 1 2 2 2 3 2
9 9 8 8 8 7 7 6 5 4 3 3 2 2 2 2 3 3 4 4 4 4 4 4 4 3 3 2 2 2 1 1 0 1 1 2 2 2 2 2 2 2 2
8 8 8 8 8 8 7 7 6 4 3 3 3 2 2 2 3 3 4 4 4 4 4 4 4 3 3 2 2 2 1 1 0 0 1 1 1 2 2 2 2 2 2
8 9 9 9 8 8 8 7 6 5 4 4 3 3 2 2 2 3 4 4 3 3 3 3 3 3 2 2 2 2 1 1 1 0 1 1 2 2 2 2 2 2 2
9 9 9 9 9 9 8 7 6 5 4 4 3 3 2 2 3 3 3 3 3 3 3 3 3 3 3 2 2 2 1 1 0 0 1 1 1 2 2 2 3 2 3
9 10 10 10 10 9 9 7 7 6 6 5 4 3 2 2 2 2 2 2 3 3 3 3 2 3 3 3 3 2 1 1 0 0 0 1 1 3 3 3 2 3 3
10 10 11 10 10 10 9 8 7 7 6 5 4 3 3 2 2 2 2 2 2 3 3 3 3 2 2 4 4 4 1 1 0 1 0 0 2 1 2 3 3 4 4
10 10 11 11 11 10 10 9 8 8 7 6 5 4 3 2 2 2 2 2 2 2 3 2 2 2 2 3 3 4 3 1 1 1 0 0 0 2 2 4 6 5 6
9 10 10 10 10 9 9 9 8 8 8 7 6 5 4 3 2 2 2 2 2 2 2 3 3 2 2 3 3 4 3 1 1 1 1 1 1 1 2 3 3 3 3
8 8 9 9 9 9 10 9 9 9 8 7 6 5 4 3 3 3 3 3 2 2 2 2 2 2 1 1 2 5 2 1 1 1 1 2 1 2 3 3 3 3 2
6 7 8 9 9 9 10 10 10 9 8 7 6 5 4 4 4 3 3 3 2 3 3 2 3 3 2 2 2 5 3 2 1 1 1 1 2 2 3 4 3 3 3
6 7 8 8 9 10 10 11 10 9 7 7 6 5 5 4 4 3 3 3 3 3 3 3 3 2 2 0 1 3 4 3 2 2 1 1 1 2 3 6 4 3 5
7 8 8 8 8 9 10 10 9 7 7 7 6 6 5 4 3 3 3 3 3 3 3 3 3 2 1 1 0 2 3 5 3 3 2 1 2 2 3 3 3 4 5
7 7 8 8 8 9 9 10 8 7 8 7 7 6 5 4 3 3 3 3 3 3 3 2 2 2 1 1 2 3 3 4 4 2 2 3 2 4 3 2 3 4 4
7 8 9 9 9 9 8 8 8 8 8 8 7 6 5 4 4 2 2 2 2 2 2 2 3 2 2 1 2 2 2 3 4 3 2 3 3 3 2 2 2 2 2
7 8 9 9 9 9 9 8 8 9 8 8 7 6 5 4 3 3 1 1 1 3 3 3 3 3 3 4 6 5 3 3 2 2 1 1 1 1 1 1 2 2 2
7 8 9 9 9 9 9 9 8 9 9 7 7 5 5 4 4 4 4 4 3 5 4 5 5 2 4 5 4 4 4 4 2 1 0 1 1 2 3 3 3 2 3
Wind_Direction
187 177 178 180 182 172 184 80 339 6 350 342 333 333 340 338 341 343 342 331 322 322 315 307 305 299 296 292 289 284 275 272 272 261 240 209 208 213 224 233 225 209 210
186 179 183 185 190 180 191 220 322 5 357 354 334 326 323 323 338 334 339 339 331 325 318 313 306 300 291 284 286 281 282 278 253 264 254 210 182 191 201 211 217 216 200
197 183 185 187 186 190 185 213 300 354 358 341 330 320 317 307 330 342 346 345 335 328 322 317 311 305 294 291 282 275 270 280 266 255 266 250 204 176 174 200 204 213 220
196 187 185 187 188 185 180 207 218 311 341 323 331 336 336 341 347 337 339 331 333 334 329 317 308 303 299 293 280 279 270 270 267 248 258 300 325 245 182 179 186 201 216
192 187 186 185 184 176 182 207 215 255 318 324 334 313 329 338 334 332 336 334 344 342 338 323 312 306 299 300 296 289 275 258 258 260 244 238 241 256 252 205 198 192 203
187 184 179 180 180 173 182 199 214 234 289 299 305 315 333 327 332 338 341 340 346 341 348 332 321 318 311 308 301 279 263 262 251 252 244 239 234 233 254 249 233 211 186
183 183 182 182 182 184 188 195 208 231 257 284 301 319 326 320 328 335 339 334 340 342 348 335 331 332 323 315 301 277 269 252 244 243 247 246 262 263 261 256 243 239 213
184 187 187 184 186 188 190 199 207 228 250 275 296 312 326 318 335 334 330 331 333 339 340 333 336 335 328 315 306 288 271 262 254 249 242 234 237 249 246 252 249 236 219
186 188 186 186 188 189 191 199 210 225 243 257 275 303 319 326 331 329 332 332 332 337 339 340 337 344 339 325 314 301 295 273 265 257 232 227 217 235 238 246 248 258 252
188 188 186 186 188 187 190 194 209 224 239 249 259 281 299 314 321 326 334 333 334 339 336 338 339 344 338 325 320 316 333 285 256 264 252 233 227 227 226 234 239 254 265
192 189 186 184 185 185 187 191 200 215 221 233 243 255 280 306 314 324 336 332 329 333 336 340 342 344 341 335 330 327 347 312 306 234 245 246 255 238 225 226 226 239 251
191 188 183 181 183 187 189 192 197 203 207 220 238 256 286 292 303 321 329 330 330 330 335 339 341 345 343 338 334 337 335 333 327 235 246 247 229 247 246 235 228 227 238
189 186 184 186 188 190 193 194 197 199 199 207 227 242 256 285 302 318 325 327 329 330 334 332 337 336 336 333 328 324 312 303 298 282 250 253 228 229 224 230 230 230 231
193 191 190 192 192 194 194 194 193 193 197 206 219 234 253 276 291 305 316 323 330 332 336 330 335 333 333 326 322 313 310 301 342 310 280 271 259 252 240 234 227 227 229
198 197 196 194 191 195 194 193 193 191 193 200 211 221 227 243 279 301 308 319 324 322 332 334 337 342 337 355 342 327 331 333 60 32 347 356 355 352 321 295 263 237 233
203 201 197 194 194 193 191 189 192 190 191 197 202 207 232 241 277 290 303 323 313 314 330 338 345 351 1 19 350 319 328 329 60 72 46 153 197 196 234 282 305 301 270
205 199 198 196 196 192 189 189 189 184 191 195 193 204 218 229 259 273 284 291 291 313 318 335 338 344 15 11 344 314 305 306 328 354 16 13 30 251 237 209 215 231 244
205 200 198 193 193 186 184 186 183 186 192 195 196 198 219 230 247 265 276 280 293 304 305 325 329 330 1 5 332 296 272 277 271 284 284 276 293 326 298 264 253 257 238
202 195 192 186 184 182 181 181 183 185 191 195 201 198 207 223 239 251 262 275 285 289 288 306 305 299 317 22 325 292 273 264 264 276 308 304 299 53 311 268 263 271 256
185 179 179 179 179 178 178 185 188 188 194 195 201 198 206 218 230 244 259 267 271 278 281 285 287 293 308 35 337 295 274 275 270 243 213 97 336 2 301 274 270 274 289
175 172 176 179 177 173 178 190 192 194 191 189 194 194 201 212 225 237 245 254 261 272 277 283 280 284 302 324 340 299 285 290 289 286 280 60 88 314 295 287 290 314 306
171 173 175 175 172 175 184 190 190 186 180 182 188 193 200 207 212 222 239 250 257 259 265 274 280 275 247 281 341 283 281 303 290 291 302 29 66 302 286 284 330 310 283
177 178 177 171 170 178 189 188 179 177 176 179 185 190 193 194 207 218 223 235 242 262 275 280 287 293 303 180 198 240 250 262 270 294 17 2 323 278 242 216 277 271 264
183 180 180 179 176 177 185 186 173 173 179 182 187 186 193 192 188 201 229 242 263 269 276 286 295 302 303 332 327 279 234 215 232 242 182 202 231 250 287 273 245 270 307
187 186 189 187 181 175 179 178 174 177 182 185 187 186 186 186 182 159 76 284 44 359 319 313 313 317 322 13 358 325 324 326 335 306 260 270 279 291 323 331 338 326 317
190 190 193 189 183 179 177 175 176 185 187 186 186 186 183 180 180 165 140 79 66 65 47 14 347 19 25 14 15 15 12 8 337 270 213 23 7 356 353 351 350 346 343